EW1179 Weather Reports


Display with metric or nautical units.
time (UTC)temp
F
wind
direction
speed
MPH
gust
MPH
rain 1hr
in
rain 24hr
in
rain mn
in
humidity
%
barometer
mb
20260505100008 51 5 0.0 1.0 0.00 0.00 0.00 85 1012.4
20260505094507 51 193 0.0 0.0 0.00 0.00 0.00 85 1012.6
20260505091504 51 250 0.0 0.0 0.00 0.00 0.00 85 1012.9
20260505090007 51 302 0.0 0.0 0.00 0.00 0.00 85 1013.0
20260505084502 50 257 0.0 0.0 0.00 0.00 0.00 85 1013.1
20260505083001 50 200 0.0 0.0 0.00 0.00 0.00 84 1013.1
20260505081603 50 208 0.0 0.0 0.00 0.00 0.00 82 1013.1
20260505080105 51 200 0.0 0.0 0.00 0.00 0.00 82 1013.2
20260505074556 51 126 0.0 0.0 0.00 0.00 0.00 82 1013.2
20260505073100 51 236 0.0 0.0 0.00 0.00 0.00 82 1013.2
20260505071555 51 296 0.0 0.0 0.00 0.00 0.00 81 1013.2
20260505070057 51 217 0.0 0.0 0.00 0.00 0.00 81 1013.2
20260505064629 51 283 0.0 2.0 0.00 0.00 0.00 81 1013.1
20260505063052 51 221 0.0 4.0 0.00 0.00 0.00 81 1012.9
20260505061551 51 223 0.0 5.0 0.00 0.00 0.00 81 1012.9
20260505060050 51 170 0.0 5.0 0.00 0.00 0.00 81 1013.1
20260505054552 52 238 0.0 3.0 0.00 0.00 0.00 80 1013.1
20260505053049 52 271 0.0 2.0 0.00 0.00 0.00 79 1013.1
20260505051549 53 333 0.0 0.0 0.00 0.00 0.00 78 1013.2
20260505041548 53 273 0.0 2.0 0.00 0.00 0.00 74 1012.8
20260505040056 53 151 0.0 0.0 0.00 0.00 0.00 73 1012.8
20260505034605 54 166 0.0 0.0 0.00 0.00 0.00 71 1012.7
20260505033046 54 95 0.0 3.0 0.00 0.00 0.00 70 1012.5
20260505031545 54 229 0.0 3.0 0.00 0.00 0.00 72 1012.3
20260505030048 54 227 0.0 5.0 0.00 0.00 0.00 73 1012.3
20260505024543 54 178 0.0 4.0 0.00 0.00 0.00 72 1012.3
20260505023045 55 213 0.0 8.0 0.00 0.00 0.00 72 1012.3
20260505021543 55 281 1.0 5.0 0.00 0.00 0.00 72 1012.0
20260505020054 55 204 0.0 7.0 0.00 0.00 0.00 73 1012.2
20260505014542 56 240 1.0 6.0 0.00 0.00 0.00 73 1012.2
20260505013042 57 236 0.0 5.0 0.00 0.00 0.00 71 1012.3
20260505011540 57 252 3.0 11.0 0.00 0.00 0.00 69 1012.3
20260505010052 58 205 0.0 7.0 0.00 0.00 0.00 68 1012.2
20260505004557 59 217 0.0 4.0 0.00 0.00 0.00 65 1012.2
20260505003039 59 258 1.0 7.0 0.00 0.00 0.00 62 1012.1
20260505001541 60 307 0.0 3.0 0.00 0.00 0.00 63 1012.3
20260505000039 61 217 0.0 5.0 0.00 0.00 0.00 64 1012.3
20260504234538 61 271 1.0 6.0 0.00 0.00 0.00 62 1012.3
20260504233037 61 265 0.0 4.0 0.00 0.00 0.00 61 1012.2
20260504231540 62 275 0.0 5.0 0.00 0.00 0.00 58 1012.4
20260504230034 63 284 1.0 7.0 0.00 0.00 0.00 57 1012.5
20260504224537 62 177 2.0 7.0 0.00 0.00 0.00 57 1012.6
20260504223032 63 246 0.0 6.0 0.00 0.00 0.00 57 1012.8
20260504221538 62 244 0.0 7.0 0.00 0.00 0.00 60 1013.0
20260504220030 63 228 2.0 8.0 0.00 0.00 0.00 56 1013.1
20260504214529 65 272 0.0 5.0 0.00 0.00 0.00 52 1013.1
20260504213038 65 186 3.0 6.0 0.00 0.00 0.00 53 1013.4
20260504211533 65 230 2.0 8.0 0.00 0.00 0.00 52 1013.3
20260504210026 64 254 1.0 7.0 0.00 0.00 0.00 57 1013.3
20260504204525 62 249 0.0 5.0 0.00 0.00 0.00 58 1013.4
20260504203025 62 204 0.0 6.0 0.00 0.00 0.00 57 1013.3
20260504201527 61 248 1.0 7.0 0.00 0.00 0.00 58 1013.4
20260504200026 61 219 0.0 5.0 0.00 0.00 0.00 59 1013.3
20260504194524 62 184 0.0 10.0 0.00 0.00 0.00 56 1013.3
20260504193022 64 201 1.0 7.0 0.00 0.00 0.00 55 1013.1
20260504191519 62 327 0.0 3.0 0.00 0.00 0.00 61 1013.1
20260504190021 62 340 0.0 1.0 0.00 0.00 0.00 59 1013.3
20260504184537 62 226 0.0 4.0 0.00 0.00 0.00 56 1013.4
20260504183018 63 223 0.0 0.0 0.00 0.00 0.00 55 1013.3
20260504181518 63 159 0.0 3.0 0.00 0.00 0.00 55 1013.4
20260504180015 64 213 0.0 4.0 0.00 0.00 0.00 55 1013.4
20260504174512 63 138 0.0 3.0 0.00 0.00 0.00 58 1013.5
20260504173015 63 248 0.0 0.0 0.00 0.00 0.00 58 1013.5
20260504171505 61 90 0.0 0.0 0.00 0.00 0.00 63 1013.5
20260504150129 47 254 0.0 0.0 0.00 0.00 0.00 93 1013.8